Wind_Speed
29 28 29 30 30 32 34 37 36 32 29 29 28 26 24 23 22 22 21 22 24 24 24 25 26 26 26 24 24 23 23 24 24 24 22 21 21 19 18 17 17 15 14
31 29 29 30 28 30 35 39 37 35 35 35 33 30 27 25 24 24 24 25 26 27 28 29 29 28 27 25 24 23 23 24 25 25 23 21 21 21 19 17 16 15 14
39 38 39 37 35 34 35 36 36 38 41 42 38 32 28 25 26 27 27 27 29 29 29 30 29 28 26 25 24 23 23 24 25 24 23 21 21 21 20 18 15 14 14
41 41 41 40 37 37 38 38 38 40 41 42 38 32 27 25 28 30 30 30 32 32 31 31 30 29 27 26 26 24 22 23 23 23 22 20 20 20 18 18 15 13 12
37 34 33 33 35 38 41 42 40 39 38 34 31 28 27 28 30 31 32 32 33 34 33 32 31 31 30 29 28 24 21 21 22 22 21 20 20 20 18 16 14 14 12
33 33 32 31 32 35 39 42 40 39 39 39 36 33 32 32 31 31 33 34 35 36 36 35 34 34 33 32 28 24 21 21 21 22 22 20 19 19 16 14 15 15 12
32 32 31 30 31 31 32 34 38 40 41 41 38 35 34 33 33 34 36 38 39 39 38 38 37 36 36 34 29 24 22 21 21 22 22 21 20 18 14 13 13 11 11
33 33 32 32 32 32 30 29 32 36 38 38 37 36 36 37 38 39 40 41 41 41 40 39 39 38 38 36 31 25 24 23 23 23 23 21 19 17 14 13 12 11 11
34 36 36 33 30 28 29 27 27 28 31 32 35 37 40 41 41 39 40 41 41 40 38 37 37 37 36 34 28 25 24 23 24 24 24 21 19 16 12 11 12 11 11
33 36 37 33 29 27 25 25 25 27 30 32 34 35 36 37 38 37 37 37 38 37 35 35 36 35 34 32 28 26 25 24 24 25 25 23 20 17 14 12 11 11 12
33 32 30 26 22 21 23 26 28 29 30 32 32 33 33 34 35 35 35 36 36 36 36 35 35 33 32 32 31 29 28 26 26 27 27 25 23 21 18 17 15 14 14
23 21 18 17 21 25 28 31 32 32 33 33 32 32 33 33 33 34 35 35 34 33 32 32 32 30 30 30 31 31 30 28 26 28 30 29 27 24 21 20 18 16 15
27 27 27 28 29 30 31 32 32 33 34 35 35 35 35 34 33 34 34 33 32 31 31 29 28 28 28 28 28 29 29 27 27 27 28 29 29 26 25 23 19 17 14
35 34 33 33 33 33 33 33 32 32 34 35 35 35 36 35 33 32 32 32 30 29 29 26 25 26 26 24 24 25 25 27 28 27 25 25 25 25 24 24 21 19 16
36 34 34 34 34 33 33 34 35 33 33 34 35 34 35 34 32 30 30 31 30 28 26 25 24 25 25 24 23 24 25 27 27 26 24 23 23 23 23 22 21 20 18
40 40 40 40 39 38 37 36 36 34 33 33 35 34 33 32 30 29 30 30 28 25 23 21 19 19 20 21 21 22 24 26 26 26 24 24 24 24 23 22 22 23 22
41 41 41 41 40 39 39 38 37 36 34 33 34 35 34 32 30 29 29 29 27 24 22 20 18 18 19 20 20 20 21 22 23 23 22 21 22 23 23 23 24 24 25
36 36 37 37 37 37 37 38 38 37 36 34 34 35 35 34 33 32 31 31 30 28 25 24 22 22 23 24 24 24 23 21 20 20 20 20 21 22 23 24 26 26 26
31 32 33 33 33 34 34 35 35 34 33 33 33 34 35 34 33 34 34 35 35 34 32 30 28 27 27 28 28 28 27 25 23 22 22 22 22 22 23 24 27 28 28
27 26 25 26 27 27 28 29 30 29 28 28 28 30 32 32 32 33 34 36 38 39 37 36 34 31 30 31 31 31 30 28 26 26 26 26 26 26 26 27 28 30 31
25 24 20 19 20 20 20 21 23 25 26 26 26 27 27 28 28 29 32 33 32 33 34 35 35 33 32 32 33 33 32 31 30 30 31 31 30 29 29 29 29 29 30
22 20 17 16 17 17 17 17 16 17 19 22 25 26 26 27 27 28 30 33 31 29 29 30 31 32 32 34 36 37 38 38 36 35 35 35 34 32 32 31 30 29 29
19 16 14 13 15 17 18 17 15 14 15 17 19 21 23 23 23 23 24 25 26 25 25 26 27 29 31 33 35 37 37 37 37 37 38 38 36 34 34 33 32 30 30
15 14 13 13 14 14 15 17 16 15 17 18 19 20 22 24 24 24 22 22 21 21 20 21 22 25 27 29 32 34 35 36 36 37 39 39 38 36 36 35 34 33 33
14 13 13 14 16 18 20 21 21 21 22 23 25 26 26 27 27 26 24 24 23 22 22 22 22 24 26 28 31 33 34 35 35 36 37 38 38 38 38 38 38 37 37
15 15 16 18 18 19 20 22 24 26 28 30 31 31 30 28 28 28 28 27 27 26 27 28 30 30 31 32 34 36 37 38 38 38 38 40 41 41 42 42 41 41 40
Wind_Direction
265 262 262 262 260 259 262 266 268 269 271 271 270 272 272 272 272 272 274 274 273 275 281 286 289 292 293 293 292 294 295 295 292 289 289 289 290 292 298 302 301 300 291
268 267 268 269 269 265 263 261 262 266 270 268 265 265 268 272 274 273 270 268 268 272 279 284 286 286 288 288 290 294 293 291 288 286 286 287 289 292 298 303 303 300 289
269 268 266 267 267 265 261 259 264 270 273 267 259 257 261 270 274 272 268 264 265 269 277 282 282 282 284 286 289 293 290 287 285 283 283 284 287 294 300 304 304 299 289
271 270 268 266 264 261 256 258 267 272 271 263 253 250 256 268 273 270 265 263 266 272 276 277 276 276 278 283 291 293 288 284 281 280 280 282 286 291 295 298 300 297 285
269 267 266 264 261 257 255 260 265 266 264 259 252 260 273 277 273 266 261 261 266 271 273 272 272 274 276 280 287 289 286 282 278 278 279 282 286 289 291 292 296 298 284
263 263 265 263 257 253 253 254 256 255 258 262 266 272 276 275 272 267 266 269 273 275 274 272 271 274 277 280 283 282 280 279 279 278 278 279 282 285 290 290 295 294 278
256 259 261 259 258 254 253 251 249 248 253 261 265 268 269 269 267 267 270 272 273 274 274 273 271 270 272 275 278 274 272 275 279 279 278 276 276 280 285 289 294 286 271
255 256 257 256 259 263 266 267 263 260 262 263 263 263 264 265 266 268 270 271 270 270 271 272 271 269 269 271 273 266 264 270 277 280 277 274 272 279 280 280 281 272 265
258 258 255 253 259 267 268 272 271 267 265 265 265 264 265 266 266 266 267 268 268 269 271 273 273 271 269 268 265 257 258 266 273 277 275 269 267 272 271 269 273 268 261
263 262 255 256 259 261 260 263 264 262 264 265 265 266 268 267 267 267 267 268 268 270 272 274 273 270 267 263 257 251 252 259 266 270 270 265 262 261 259 263 269 270 268
265 264 254 252 250 254 259 261 264 265 265 267 268 268 269 269 269 270 272 273 272 273 274 273 270 266 264 260 253 250 250 254 261 265 264 262 262 260 258 262 268 271 270
258 255 254 262 269 272 271 270 268 265 262 262 265 267 268 269 271 271 273 274 272 271 272 271 266 261 261 260 254 253 251 254 259 265 263 259 259 260 259 263 264 266 264
272 275 278 281 280 278 276 274 272 266 261 260 262 264 264 266 270 271 270 271 271 270 271 270 265 260 260 259 255 252 253 254 261 264 260 258 257 258 257 258 258 257 256
278 278 280 281 280 278 275 274 274 270 264 261 262 263 263 263 267 268 267 266 269 271 268 265 264 256 253 253 249 248 252 255 256 254 253 254 254 254 254 255 254 252 249
280 280 281 278 276 276 277 276 274 271 265 260 260 262 262 261 264 264 262 263 266 268 264 260 258 251 248 251 252 252 252 251 250 249 250 252 253 254 255 254 252 249 246
278 280 281 279 277 275 274 274 273 270 266 260 257 259 260 259 260 260 258 258 261 261 257 254 252 249 248 249 249 249 247 248 248 250 251 252 251 251 253 254 253 249 247
275 276 277 277 276 274 272 270 268 268 266 263 257 256 256 257 256 255 254 253 254 254 250 248 247 247 246 245 243 241 242 244 246 246 245 246 248 249 250 251 253 252 249
275 274 273 273 272 269 267 264 263 262 261 259 256 253 253 252 252 251 251 248 249 250 248 245 242 241 241 242 241 240 240 241 244 246 245 245 246 247 248 249 249 249 248
284 282 278 273 268 264 261 260 259 259 256 254 252 249 250 249 248 246 244 243 244 244 244 241 238 239 239 240 242 244 245 246 248 252 254 253 252 252 251 250 248 247 246
291 293 285 272 263 258 255 253 253 253 251 248 246 246 246 247 247 244 241 237 238 240 240 238 236 237 239 240 243 243 244 248 252 256 258 258 257 258 259 256 251 247 246
293 297 289 270 258 253 253 253 252 249 244 241 238 236 237 240 241 240 237 236 238 240 240 239 238 237 239 242 244 243 244 247 251 255 255 255 255 256 256 255 252 249 246
294 294 284 267 256 254 254 252 250 245 239 236 234 231 231 236 240 245 246 248 252 254 249 245 244 244 244 245 246 246 245 247 251 252 253 253 253 253 253 252 251 250 248
290 288 280 271 262 254 246 243 245 244 243 240 237 236 237 243 251 260 263 263 263 260 256 252 250 250 250 250 249 248 248 249 251 251 251 251 250 250 250 250 250 248 246
288 283 275 268 261 249 238 235 236 246 246 246 247 246 250 257 263 267 265 263 261 262 261 258 256 256 256 256 255 254 252 251 250 249 250 251 250 249 248 248 247 245 244
289 286 282 273 265 260 258 255 253 253 247 245 246 248 252 256 258 257 255 255 259 261 257 254 252 255 256 255 255 256 255 254 253 253 253 252 250 249 248 247 247 248 248
287 286 286 285 281 276 271 265 258 255 253 250 248 250 251 251 250 250 252 254 257 255 250 249 251 253 255 256 258 259 258 256 255 255 256 256 255 253 251 249 249 249 250
Height
5874 5877 5879 5880 5882 5885 5885 5883 5883 5883 5883 5883 5883 5884 5885 5886 5885 5884 5884 5883 5882 5882 5882 5882 5881 5880 5878 5877 5876 5875 5873 5871 5868 5867 5866 5865 5863 5861 5860 5858 5856 5854 5853
5865 5868 5870 5871 5873 5875 5875 5874 5874 5874 5874 5874 5874 5875 5877 5878 5878 5878 5878 5877 5876 5876 5876 5876 5876 5874 5872 5872 5871 5870 5868 5865 5863 5862 5861 5861 5859 5857 5856 5855 5852 5850 5849
5856 5858 5860 5862 5864 5865 5865 5864 5865 5865 5865 5865 5865 5866 5869 5871 5872 5872 5871 5870 5870 5869 5869 5870 5869 5868 5867 5866 5865 5864 5863 5860 5858 5857 5856 5855 5854 5852 5852 5851 5848 5846 5845
5846 5847 5849 5852 5855 5857 5857 5857 5857 5857 5856 5855 5856 5858 5860 5863 5865 5865 5864 5864 5864 5863 5863 5862 5861 5860 5860 5860 5859 5858 5857 5855 5853 5852 5851 5850 5849 5848 5848 5847 5845 5843 5841
5839 5839 5841 5844 5846 5848 5849 5849 5848 5848 5848 5846 5848 5850 5852 5855 5857 5858 5858 5858 5858 5857 5856 5855 5854 5853 5853 5854 5853 5853 5852 5851 5849 5847 5846 5845 5844 5843 5843 5842 5841 5839 5837
5831 5831 5832 5834 5835 5837 5838 5838 5838 5838 5837 5838 5839 5841 5844 5847 5849 5851 5851 5851 5850 5849 5848 5847 5847 5846 5846 5846 5846 5847 5847 5846 5844 5843 5841 5840 5839 5838 5838 5838 5837 5835 5833
5822 5821 5822 5823 5825 5825 5825 5827 5827 5828 5828 5829 5831 5834 5836 5839 5841 5842 5843 5842 5842 5841 5840 5839 5838 5838 5838 5838 5839 5840 5840 5840 5839 5838 5837 5835 5834 5833 5834 5835 5833 5831 5829
5813 5813 5814 5814 5815 5815 5817 5818 5819 5819 5820 5822 5825 5827 5829 5831 5832 5832 5833 5832 5832 5831 5830 5830 5829 5829 5830 5831 5832 5833 5834 5834 5833 5833 5832 5831 5829 5828 5830 5830 5829 5828 5826
5806 5806 5806 5806 5807 5808 5810 5812 5813 5814 5814 5816 5817 5819 5820 5821 5822 5822 5822 5822 5821 5821 5821 5821 5820 5821 5821 5822 5824 5826 5827 5828 5827 5828 5827 5827 5825 5824 5825 5825 5824 5824 5823
5798 5798 5798 5799 5801 5803 5805 5807 5808 5808 5808 5808 5809 5810 5811 5812 5812 5812 5811 5811 5811 5811 5811 5811 5811 5811 5812 5814 5816 5817 5819 5821 5821 5821 5822 5822 5822 5821 5821 5820 5820 5820 5819
5791 5790 5790 5791 5794 5797 5799 5801 5801 5800 5800 5800 5800 5801 5802 5803 5803 5803 5803 5803 5803 5802 5802 5802 5802 5802 5803 5805 5807 5809 5811 5813 5814 5815 5816 5817 5817 5817 5817 5817 5817 5816 5815
5785 5785 5785 5787 5789 5790 5791 5791 5791 5791 5791 5791 5791 5792 5793 5794 5794 5795 5796 5795 5795 5794 5793 5792 5792 5793 5794 5795 5798 5800 5803 5805 5806 5808 5809 5811 5811 5812 5812 5812 5812 5812 5811
5779 5779 5779 5780 5780 5781 5781 5781 5782 5781 5781 5782 5782 5783 5784 5785 5786 5786 5787 5787 5786 5786 5785 5784 5783 5784 5786 5788 5789 5792 5794 5796 5798 5800 5802 5803 5805 5806 5806 5806 5807 5808 5807
5770 5771 5772 5772 5772 5772 5772 5772 5772 5772 5772 5773 5773 5774 5775 5776 5777 5778 5779 5779 5779 5778 5777 5777 5776 5777 5779 5780 5782 5784 5786 5788 5790 5793 5795 5796 5798 5799 5800 5800 5801 5803 5803
5761 5762 5762 5763 5763 5763 5763 5762 5762 5762 5762 5763 5764 5765 5766 5767 5768 5769 5770 5771 5771 5771 5770 5770 5770 5770 5772 5773 5774 5776 5779 5781 5783 5786 5788 5790 5791 5793 5794 5794 5796 5798 5799
5751 5751 5751 5751 5752 5752 5752 5752 5752 5752 5753 5754 5755 5756 5757 5758 5759 5761 5762 5763 5764 5763 5763 5763 5763 5764 5765 5766 5768 5770 5772 5775 5777 5779 5781 5783 5784 5786 5787 5788 5790 5792 5794
5741 5741 5740 5739 5739 5739 5739 5739 5740 5741 5743 5744 5746 5747 5748 5749 5750 5752 5753 5754 5756 5756 5756 5756 5757 5758 5759 5761 5762 5764 5767 5769 5771 5773 5774 5775 5777 5779 5781 5782 5784 5785 5787
5730 5729 5728 5728 5727 5727 5727 5728 5729 5730 5732 5733 5735 5736 5738 5740 5742 5743 5744 5746 5747 5748 5749 5749 5750 5752 5754 5755 5757 5759 5760 5763 5765 5766 5768 5769 5770 5772 5774 5776 5778 5780 5781
5719 5718 5716 5715 5715 5716 5717 5717 5718 5719 5721 5722 5724 5726 5728 5731 5732 5734 5736 5737 5738 5740 5741 5742 5743 5745 5747 5748 5750 5752 5754 5756 5758 5759 5760 5762 5763 5765 5767 5769 5771 5773 5775
5711 5709 5707 5706 5706 5707 5708 5708 5709 5711 5712 5714 5715 5717 5719 5721 5723 5725 5726 5728 5729 5731 5732 5733 5735 5737 5739 5740 5742 5744 5747 5749 5750 5751 5752 5754 5756 5757 5759 5760 5762 5765 5767
5704 5703 5701 5700 5700 5701 5701 5702 5703 5704 5705 5707 5708 5710 5711 5712 5714 5716 5718 5719 5720 5722 5723 5724 5726 5727 5729 5732 5734 5736 5739 5740 5741 5742 5743 5745 5747 5748 5749 5751 5753 5755 5758
5699 5697 5696 5695 5696 5696 5696 5697 5698 5698 5699 5701 5702 5704 5704 5705 5706 5708 5709 5710 5711 5712 5714 5715 5716 5718 5720 5722 5724 5727 5729 5730 5731 5732 5732 5734 5736 5738 5740 5742 5744 5745 5748
5693 5692 5692 5691 5692 5692 5692 5693 5693 5694 5695 5696 5697 5698 5698 5699 5699 5700 5700 5701 5702 5703 5704 5706 5707 5708 5709 5710 5712 5714 5717 5719 5720 5721 5722 5723 5725 5728 5730 5732 5734 5736 5739
5688 5687 5687 5688 5688 5688 5689 5689 5689 5690 5690 5691 5691 5692 5693 5693 5693 5693 5692 5693 5694 5695 5696 5697 5698 5699 5699 5701 5702 5704 5705 5707 5709 5710 5712 5713 5715 5717 5720 5722 5724 5726 5729
5683 5683 5683 5683 5683 5684 5684 5684 5684 5685 5685 5685 5685 5686 5686 5686 5686 5686 5686 5686 5686 5687 5689 5690 5691 5692 5692 5693 5694 5694 5695 5696 5697 5700 5702 5703 5705 5706 5708 5711 5713 5715 5718
5679 5679 5678 5678 5677 5677 5677 5677 5677 5677 5678 5678 5678 5678 5678 5679 5678 5678 5678 5678 5679 5679 5680 5681 5682 5683 5683 5683 5684 5684 5685 5686 5687 5689 5690 5692 5693 5694 5696 5697 5700 5703 5705